When you browse on this site, cookies collect data to enhance your experience and personalize the content and advertising you see.
Visit our Privacy Policy to learn more. By continuing to use the site, you agree to this use of cookies and data.
  • In Hungary
  • List of Countries
  • For 7 days
  • Water Temperature
  • Satellite Maps
  • Weather Map
  • News
  • Weather Widgets
  • user-avatar
    Login

    Hourly Weather Santa Fe

    Today, 21 March, Thursday

    Time Temperature Precipitation Wind Pressure Humidity
    00:00 +15°C° 0 mm 2 mps 765 mmHg 58%
    01:00 +14°C° 0 mm 2 mps 765 mmHg 60%
    02:00 +13°C° 0 mm 2 mps 766 mmHg 59%
    03:00 +13°C° 0 mm 2 mps 766 mmHg 60%
    04:00 +13°C° 0 mm 2 mps 765 mmHg 62%
    05:00 +12°C° 0 mm 2 mps 765 mmHg 63%
    06:00 +14°C° 0 mm 2 mps 765 mmHg 58%
    07:00 +15°C° 0 mm 2 mps 765 mmHg 54%
    08:00 +17°C° 0 mm 3 mps 765 mmHg 48%
    09:00 +19°C° 0 mm 3 mps 765 mmHg 42%
    10:00 +21°C° 0 mm 3 mps 765 mmHg 36%
    11:00 +24°C° 0 mm 3 mps 764 mmHg 30%
    12:00 +25°C° 0 mm 3 mps 764 mmHg 28%
    13:00 +26°C° 0 mm 2 mps 763 mmHg 26%
    14:00 +27°C° 0 mm 2 mps 762 mmHg 23%
    15:00 +27°C° 0 mm 2 mps 762 mmHg 24%
    16:00 +26°C° 0 mm 2 mps 761 mmHg 25%
    17:00 +26°C° 0 mm 3 mps 761 mmHg 25%
    18:00 +24°C° 0 mm 2 mps 761 mmHg 31%
    19:00 +20°C° 0 mm 2 mps 761 mmHg 36%
    20:00 +18°C° 0 mm 2 mps 761 mmHg 42%
    21:00 +17°C° 0 mm 2 mps 761 mmHg 46%
    22:00 +17°C° 0 mm 2 mps 761 mmHg 50%
    23:00 +16°C° 0 mm 3 mps 761 mmHg 53%

    Tomorrow, 22 March, Friday

    Time Temperature Precipitation Wind Pressure Humidity
    00:00 +16°C° 0 mm 3 mps 761 mmHg 56%
    01:00 +15°C° 0 mm 2 mps 761 mmHg 59%
    02:00 +15°C° 0 mm 2 mps 761 mmHg 62%
    03:00 +15°C° 0 mm 2 mps 762 mmHg 64%
    04:00 +14°C° 0 mm 2 mps 762 mmHg 67%
    05:00 +14°C° 0 mm 2 mps 762 mmHg 69%
    06:00 +14°C° 0 mm 3 mps 762 mmHg 65%
    07:00 +17°C° 0 mm 3 mps 762 mmHg 60%
    08:00 +18°C° 0 mm 3 mps 763 mmHg 56%
    09:00 +21°C° 0 mm 3 mps 763 mmHg 48%
    10:00 +24°C° 0 mm 3 mps 763 mmHg 40%
    11:00 +27°C° 0 mm 2 mps 763 mmHg 33%
    12:00 +28°C° 0 mm 2 mps 762 mmHg 31%
    13:00 +30°C° 0 mm 1 mps 761 mmHg 28%
    14:00 +29°C° 0 mm 0 mps 761 mmHg 26%
    15:00 +30°C° 0 mm 1 mps 760 mmHg 27%
    16:00 +30°C° 0 mm 1 mps 760 mmHg 28%
    17:00 +29°C° 0 mm 1 mps 759 mmHg 28%
    18:00 +26°C° 0 mm 1 mps 760 mmHg 33%
    19:00 +24°C° 0 mm 2 mps 760 mmHg 37%
    20:00 +21°C° 0 mm 2 mps 760 mmHg 41%
    21:00 +20°C° 0 mm 2 mps 760 mmHg 44%
    22:00 +19°C° 0 mm 2 mps 761 mmHg 47%
    23:00 +18°C° 0 mm 2 mps 761 mmHg 50%

    Day after tomorrow, 23 March, Saturday

    Time Temperature Precipitation Wind Pressure Humidity
    00:00 +18°C° 0 mm 2 mps 761 mmHg 53%
    01:00 +17°C° 0 mm 2 mps 761 mmHg 55%
    02:00 +16°C° 0 mm 2 mps 760 mmHg 58%
    03:00 +16°C° 0 mm 2 mps 760 mmHg 59%
    04:00 +16°C° 0 mm 2 mps 760 mmHg 61%
    05:00 +15°C° 0 mm 2 mps 760 mmHg 63%
    06:00 +17°C° 0 mm 2 mps 760 mmHg 58%
    07:00 +18°C° 0 mm 2 mps 761 mmHg 53%
    08:00 +20°C° 0 mm 3 mps 761 mmHg 49%
    09:00 +24°C° 0 mm 3 mps 761 mmHg 42%
    10:00 +26°C° 0 mm 3 mps 761 mmHg 35%
    11:00 +29°C° 0 mm 3 mps 761 mmHg 28%
    12:00 +30°C° 0 mm 3 mps 760 mmHg 26%
    13:00 +31°C° 0 mm 3 mps 759 mmHg 24%
    14:00 +33°C° 0 mm 3 mps 758 mmHg 22%
    15:00 +33°C° 0 mm 3 mps 758 mmHg 23%
    16:00 +31°C° 0 mm 3 mps 757 mmHg 24%
    17:00 +31°C° 0 mm 3 mps 757 mmHg 25%
    18:00 +28°C° 0 mm 3 mps 757 mmHg 31%
    19:00 +26°C° 0 mm 3 mps 757 mmHg 37%
    20:00 +22°C° 0 mm 3 mps 758 mmHg 42%
    21:00 +23°C° 0 mm 2 mps 758 mmHg 43%
    22:00 +21°C° 0 mm 2 mps 758 mmHg 45%
    23:00 +21°C° 0 mm 2 mps 759 mmHg 46%

    24 March, Sunday

    Time Temperature Precipitation Wind Pressure Humidity
    00:00 +20°C° 0 mm 2 mps 759 mmHg 47%
    01:00 +20°C° 0 mm 2 mps 758 mmHg 48%
    02:00 +19°C° 0 mm 2 mps 758 mmHg 50%
    03:00 +19°C° 0 mm 2 mps 758 mmHg 51%
    04:00 +18°C° 0 mm 2 mps 758 mmHg 52%
    05:00 +19°C° 0 mm 1 mps 758 mmHg 53%
    06:00 +20°C° 0 mm 1 mps 759 mmHg 49%
    07:00 +22°C° 0 mm 1 mps 760 mmHg 46%
    08:00 +23°C° 0 mm 1 mps 760 mmHg 42%
    09:00 +26°C° 0 mm 2 mps 760 mmHg 38%
    10:00 +29°C° 0 mm 2 mps 760 mmHg 35%
    11:00 +31°C° 0 mm 3 mps 760 mmHg 31%
    12:00 +33°C° 0 mm 3 mps 760 mmHg 30%
    13:00 +34°C° 0 mm 4 mps 759 mmHg 29%
    14:00 +35°C° 0 mm 4 mps 759 mmHg 28%
    15:00 +34°C° 0 mm 4 mps 758 mmHg 25%
    16:00 +33°C° 0 mm 5 mps 758 mmHg 22%
    17:00 +33°C° 0 mm 5 mps 757 mmHg 20%
    18:00 +29°C° 0 mm 5 mps 758 mmHg 22%
    19:00 +27°C° 0 mm 4 mps 759 mmHg 24%
    20:00 +25°C° 0 mm 4 mps 759 mmHg 26%
    21:00 +23°C° 0 mm 4 mps 759 mmHg 27%
    22:00 +23°C° 0 mm 4 mps 760 mmHg 28%
    23:00 +22°C° 0 mm 4 mps 760 mmHg 29%

    25 March, Monday

    Time Temperature Precipitation Wind Pressure Humidity
    00:00 +21°C° 0 mm 4 mps 760 mmHg 34%
    01:00 +20°C° 0 mm 3 mps 761 mmHg 38%
    02:00 +18°C° 0 mm 3 mps 761 mmHg 43%
    03:00 +18°C° 0 mm 3 mps 761 mmHg 47%
    04:00 +17°C° 0 mm 2 mps 761 mmHg 52%
    05:00 +16°C° 0 mm 2 mps 761 mmHg 56%
    06:00 +17°C° 0 mm 2 mps 762 mmHg 54%
    07:00 +17°C° 0 mm 3 mps 762 mmHg 52%
    08:00 +18°C° 0 mm 4 mps 763 mmHg 50%
    09:00 +20°C° 0 mm 4 mps 763 mmHg 44%
    10:00 +22°C° 0 mm 4 mps 763 mmHg 39%
    11:00 +25°C° 0 mm 4 mps 763 mmHg 33%
    12:00 +26°C° 0 mm 4 mps 762 mmHg 30%
    13:00 +27°C° 0 mm 4 mps 762 mmHg 27%
    14:00 +29°C° 0 mm 4 mps 761 mmHg 25%
    15:00 +28°C° 0 mm 4 mps 761 mmHg 26%
    16:00 +28°C° 0 mm 4 mps 761 mmHg 27%
    17:00 +28°C° 0 mm 4 mps 760 mmHg 28%
    18:00 +26°C° 0 mm 4 mps 761 mmHg 34%
    19:00 +23°C° 0 mm 4 mps 762 mmHg 41%
    20:00 +21°C° 0 mm 4 mps 762 mmHg 47%
    21:00 +20°C° 0 mm 3 mps 762 mmHg 52%
    22:00 +19°C° 0 mm 3 mps 763 mmHg 57%
    23:00 +18°C° 0 mm 2 mps 763 mmHg 62%

    26 March, Tuesday

    Time Temperature Precipitation Wind Pressure Humidity
    00:00 +18°C° 0 mm 2 mps 763 mmHg 63%
    01:00 +18°C° 0 mm 2 mps 764 mmHg 64%
    02:00 +18°C° 0 mm 2 mps 764 mmHg 65%
    03:00 +17°C° 0 mm 2 mps 764 mmHg 68%
    04:00 +16°C° 0 mm 2 mps 764 mmHg 71%
    05:00 +15°C° 0 mm 2 mps 764 mmHg 74%
    06:00 +16°C° 0 mm 2 mps 765 mmHg 70%
    07:00 +17°C° 0 mm 2 mps 765 mmHg 67%
    08:00 +18°C° 0 mm 3 mps 766 mmHg 64%
    09:00 +20°C° 0 mm 3 mps 766 mmHg 56%
    10:00 +24°C° 0 mm 3 mps 766 mmHg 49%
    11:00 +26°C° 0 mm 3 mps 766 mmHg 41%
    12:00 +27°C° 0 mm 3 mps 765 mmHg 39%
    13:00 +28°C° 0 mm 3 mps 765 mmHg 36%
    14:00 +28°C° 0 mm 3 mps 764 mmHg 33%
    15:00 +28°C° 0 mm 4 mps 764 mmHg 36%
    16:00 +27°C° 0 mm 4 mps 764 mmHg 38%
    17:00 +26°C° 0 mm 5 mps 764 mmHg 40%
    18:00 +25°C° 0 mm 4 mps 764 mmHg 46%
    19:00 +22°C° 0 mm 4 mps 764 mmHg 52%
    20:00 +20°C° 0 mm 3 mps 765 mmHg 57%
    21:00 +20°C° 0 mm 3 mps 765 mmHg 62%
    22:00 +19°C° 0 mm 3 mps 765 mmHg 66%
    23:00 +18°C° 0 mm 3 mps 766 mmHg 71%
    Show more